Theta_e
351 350 350 349 349 348 347 347 346 344 343 343 343 343 344 346 347 348 347 345 343 342 344 347 348 348 346 346 345 345 346 347 348 349 349 349 349 348 348 347 347 347
352 351 350 349 348 348 347 345 344 343 343 344 345 345 345 346 348 348 346 345 344 343 345 346 346 347 347 346 345 345 346 347 348 349 349 349 349 349 348 348 348 348
353 353 352 351 350 348 348 347 346 345 345 346 346 346 346 347 348 348 346 345 345 345 345 346 346 347 347 347 346 346 346 346 347 348 349 349 349 349 349 348 347 348
353 353 353 352 350 350 349 349 349 348 348 348 347 347 346 347 348 348 346 345 343 342 344 346 347 347 347 347 346 346 345 345 346 347 348 349 348 349 349 348 347 347
352 352 352 351 351 350 350 349 348 348 347 347 347 346 346 346 346 346 346 345 344 343 344 346 347 346 347 347 347 346 345 345 346 346 347 348 348 348 349 349 348 347
350 350 350 350 350 350 350 349 348 348 347 347 348 347 347 346 345 344 344 345 346 345 345 345 345 345 346 346 347 347 346 345 345 345 346 347 348 348 349 350 349 347
350 351 351 351 351 350 349 349 348 348 348 348 348 348 348 348 346 345 344 344 344 345 345 346 345 345 345 345 346 347 347 347 345 345 346 347 348 348 349 350 349 347
352 352 352 351 351 351 350 350 348 348 349 348 347 348 349 349 347 347 347 346 344 344 346 347 346 345 345 345 345 345 346 347 347 345 345 346 347 348 348 349 350 350
351 350 350 349 348 349 350 351 350 349 349 349 347 347 348 348 348 347 347 346 345 345 346 347 347 346 345 345 345 345 345 345 346 345 345 346 347 347 347 348 349 350
348 346 345 346 348 349 348 349 350 349 349 349 348 347 347 347 347 347 346 346 345 345 346 347 347 347 346 345 345 346 346 345 345 345 345 346 346 346 347 348 349 349
346 344 344 345 349 351 350 348 347 346 347 348 348 348 348 347 346 345 345 345 344 345 346 347 347 348 347 346 345 345 346 346 345 345 345 345 345 345 346 347 348 348
343 343 345 346 347 349 349 348 345 345 347 348 348 348 348 348 347 346 346 345 345 345 346 347 348 348 347 347 346 345 345 346 346 346 345 345 345 344 343 344 346 347
340 340 341 342 343 344 346 345 345 346 348 348 348 349 348 348 347 347 347 346 346 345 345 346 347 347 348 347 346 346 346 345 345 346 346 345 345 345 343 343 344 346
339 339 337 335 334 335 339 342 343 344 345 347 349 348 348 348 347 347 348 347 346 345 344 343 344 344 346 345 344 344 345 345 344 344 345 345 345 345 344 344 344 346
339 339 338 336 332 328 330 335 339 341 341 343 346 347 347 348 348 348 347 346 345 344 342 341 340 341 342 343 344 343 341 341 342 344 344 345 345 344 344 345 345 345
337 337 335 335 333 328 325 327 332 336 338 339 341 343 344 346 348 347 345 344 342 341 341 342 342 341 342 343 344 345 343 340 339 342 344 344 345 345 344 345 345 345
335 334 333 331 330 326 324 325 326 330 334 337 338 339 341 344 345 344 341 341 342 342 343 343 343 342 343 343 344 345 346 345 343 342 343 344 344 344 343 343 344 344
334 334 332 329 326 325 324 325 325 326 330 333 336 337 340 342 343 342 338 338 340 343 344 344 343 342 342 342 343 343 345 347 347 345 343 343 343 343 342 341 341 341
334 334 332 329 327 326 325 325 326 327 327 329 332 335 337 339 341 341 339 338 339 340 342 343 343 343 343 343 344 343 344 346 347 346 344 343 344 344 343 342 341 340
332 332 331 329 327 327 327 326 325 326 327 327 330 333 335 336 337 339 340 341 341 341 342 343 344 344 345 345 345 345 345 345 346 346 346 345 345 345 344 342 341 341
329 329 329 328 327 327 327 327 326 325 326 326 329 332 334 333 334 337 339 340 342 343 343 344 344 345 345 345 345 345 345 346 345 345 345 345 346 345 344 343 342 341
328 328 329 329 328 327 327 327 327 326 326 327 328 329 332 334 335 336 337 338 340 341 342 342 343 344 345 345 345 344 344 345 345 344 344 344 344 344 344 344 344 343
328 329 330 330 330 329 329 328 328 327 327 328 328 328 331 335 336 335 335 336 337 338 340 340 341 342 344 345 345 345 344 344 343 342 342 343 343 344 344 344 345 345
329 329 330 331 331 331 331 330 330 329 329 329 328 327 328 330 333 333 332 333 334 336 337 338 339 341 342 343 344 345 344 343 343 343 343 343 343 344 344 345 345 345
329 330 331 331 330 331 332 331 330 330 331 330 330 329 328 327 329 331 331 330 332 334 336 337 337 338 340 342 342 344 345 344 344 344 344 343 343 343 343 344 345 345
329 330 330 330 330 330 331 330 330 330 331 332 331 331 331 330 329 330 331 330 330 331 334 335 335 336 338 340 341 342 344 344 345 345 344 343 343 342 343 343 344 344
Wind_Speed
10 11 12 12 13 13 13 14 14 14 14 13 12 12 12 12 11 11 11 11 11 11 10 10 10 11 13 15 17 20 21 22 22 21 22 22 22 24 25 26 24 24
9 10 11 12 11 11 11 12 13 15 15 14 13 12 11 10 10 11 12 10 10 9 8 8 9 11 14 16 18 20 22 23 22 22 23 23 23 24 25 25 25 25
9 10 10 11 11 11 11 12 13 14 15 15 15 13 11 10 10 11 12 11 10 10 9 8 9 10 13 17 19 21 22 23 23 22 23 24 25 25 24 25 26 25
9 10 10 10 11 11 11 12 13 13 14 15 14 13 12 11 11 11 13 12 11 11 10 9 9 9 11 15 19 22 22 23 23 23 23 25 26 26 25 25 26 26
9 10 10 10 11 11 11 13 13 13 13 13 13 13 12 12 11 11 12 12 12 12 11 10 11 10 11 14 18 21 23 24 24 23 24 25 26 27 26 26 26 27
6 8 10 10 10 10 11 12 13 12 12 12 13 13 13 12 13 12 12 11 12 13 13 12 11 11 11 13 15 18 21 23 24 24 24 24 24 26 26 27 27 27
7 8 9 10 10 10 11 11 12 12 12 13 13 13 13 14 14 14 13 12 13 13 13 12 12 11 11 12 14 15 18 20 22 24 24 23 24 26 27 28 27 27
10 10 11 13 13 13 12 11 12 12 12 14 14 13 13 14 14 14 14 14 14 14 13 13 12 11 11 12 12 14 16 19 21 23 23 23 24 26 28 29 28 27
10 11 12 13 14 15 15 15 14 13 12 14 14 13 13 14 15 14 14 15 15 15 15 14 13 13 12 12 12 13 15 18 21 22 23 24 24 25 27 30 30 28
9 11 13 13 13 14 14 15 16 15 13 13 13 13 13 13 14 15 15 15 15 15 16 15 15 14 13 12 12 12 14 16 19 22 23 24 24 25 26 28 30 29
10 8 11 14 14 13 13 13 14 15 14 12 12 13 13 14 14 15 15 16 16 15 16 16 16 15 14 13 12 13 14 15 17 21 23 23 24 25 26 26 27 28
16 11 10 12 14 15 15 14 14 15 15 13 12 12 12 13 14 15 15 16 16 15 16 16 16 16 16 15 14 13 14 14 16 19 21 22 23 24 25 25 26 27
18 16 13 13 14 15 16 15 15 16 15 15 14 13 12 12 13 14 14 15 15 16 16 16 16 16 16 16 15 15 15 14 16 18 20 21 22 22 23 24 26 26
17 17 16 15 15 15 15 15 15 15 15 15 15 14 13 12 12 12 13 14 15 15 15 16 17 17 17 16 15 15 16 15 15 17 19 21 22 23 23 24 25 26
16 18 18 17 16 15 14 13 13 14 14 14 14 14 14 13 12 11 11 13 14 14 15 16 17 17 18 17 17 16 17 17 17 18 19 20 22 23 23 23 25 26
15 17 19 19 18 18 17 14 13 13 13 13 13 13 13 14 13 11 12 13 14 14 15 16 18 18 18 18 18 18 18 19 20 20 21 21 22 23 24 25 25 26
16 17 19 20 20 19 18 17 14 13 13 13 13 12 12 11 11 11 13 15 16 16 16 16 17 17 18 18 19 19 19 20 20 20 21 23 23 24 25 25 26 26
17 18 19 20 20 19 18 18 16 14 14 13 13 13 12 11 10 11 14 14 16 18 18 17 17 16 17 18 19 19 20 21 21 21 22 23 25 25 25 25 26 26
18 20 21 21 20 18 17 17 17 16 15 14 13 12 12 11 10 12 14 15 16 17 17 17 17 16 16 18 19 19 19 21 23 24 24 24 24 26 26 27 27 26
21 22 23 22 21 19 16 16 16 17 16 15 14 13 12 12 11 11 13 14 15 15 16 16 15 15 15 17 19 20 20 21 23 25 26 25 25 25 27 28 28 28
24 25 25 24 22 19 17 16 16 16 17 16 15 13 12 12 12 12 12 13 14 15 15 16 15 14 15 16 17 18 19 21 23 24 25 26 26 26 27 28 29 30
25 26 26 25 22 20 19 18 17 16 16 15 15 14 14 14 13 12 12 14 14 14 15 16 16 15 15 14 15 16 18 20 22 23 24 26 26 27 28 28 29 30
25 26 26 24 23 21 20 19 18 16 15 14 14 15 16 16 14 12 13 14 15 15 15 16 16 16 15 14 14 16 18 20 21 22 23 25 26 27 28 28 28 29
26 26 25 24 23 22 20 19 18 17 16 15 14 15 17 17 15 14 14 15 16 17 16 17 17 16 15 15 14 15 18 21 22 23 24 24 25 26 27 27 27 27
26 25 25 25 25 23 20 20 20 19 17 16 15 14 15 16 17 17 16 16 17 17 17 17 17 16 15 15 15 15 17 20 22 24 24 24 25 26 27 26 26 26
25 25 26 26 26 24 23 22 22 20 18 17 15 14 14 15 17 18 18 18 18 18 18 18 18 17 15 15 15 16 18 19 21 23 24 24 24 25 27 27 27 26
Wind_Direction
298 290 285 280 280 279 277 273 272 273 271 271 273 272 266 258 256 257 252 251 256 256 257 263 257 244 238 234 230 228 228 230 230 225 222 222 221 220 220 220 222 225
295 288 283 278 276 275 274 270 269 270 273 277 278 274 268 258 257 262 260 256 255 253 251 257 257 244 235 232 231 231 231 230 228 226 225 226 224 223 224 223 224 228
298 292 285 279 274 271 268 267 268 271 275 279 279 277 270 259 255 259 263 262 254 245 238 240 249 246 238 233 230 230 230 230 228 227 226 226 226 228 228 227 226 228
308 298 288 281 278 274 270 270 272 273 275 278 280 281 273 263 257 254 257 259 257 251 242 235 239 241 239 235 233 231 229 229 229 230 230 227 226 228 231 232 230 228
315 298 284 278 275 273 273 274 276 277 275 277 282 283 279 271 264 257 253 255 259 261 253 241 237 238 240 238 235 233 229 228 229 231 235 232 227 226 230 234 233 229
303 293 284 278 274 272 274 277 280 281 278 279 282 284 283 279 272 267 260 255 257 259 256 250 243 239 240 239 236 233 230 228 228 230 236 237 229 227 229 233 234 231
283 284 288 288 285 282 280 280 281 282 282 283 283 283 283 279 277 274 269 265 260 257 254 252 250 247 244 241 237 234 232 230 228 228 231 233 230 229 229 230 232 230
284 288 297 300 298 294 290 286 283 283 286 287 288 289 284 279 278 274 269 268 265 260 255 251 252 252 251 248 241 235 234 232 230 227 226 228 230 232 231 229 229 229
301 310 310 307 305 300 296 293 291 292 292 291 293 293 288 282 280 276 271 269 267 263 259 255 255 255 255 255 249 240 235 232 230 227 225 226 230 232 231 228 228 229
333 327 315 306 301 298 297 298 301 303 301 298 298 296 293 288 282 279 274 271 270 267 263 261 260 261 260 261 259 252 243 232 227 226 226 228 231 232 233 232 231 230
7 341 318 311 305 302 305 307 308 307 301 298 300 298 298 294 289 286 280 274 273 271 269 265 263 263 263 263 263 262 256 244 231 226 227 232 235 235 237 239 239 237
16 8 341 326 319 318 321 318 308 303 298 292 291 292 294 294 292 291 288 284 280 275 274 273 270 267 266 265 265 263 259 253 244 237 234 236 240 241 240 241 242 242
7 7 359 349 340 337 336 330 318 310 303 296 293 291 291 290 290 292 295 295 291 283 278 277 274 271 266 265 266 265 260 254 245 241 239 239 243 245 243 241 240 243
356 354 352 351 349 348 349 344 337 329 319 308 302 298 294 289 288 291 295 296 292 284 276 271 268 264 258 252 252 255 257 253 243 237 236 238 241 243 243 242 240 241
351 345 342 342 343 345 349 348 346 343 337 327 316 307 300 292 286 285 286 287 283 274 266 263 261 258 254 248 245 244 248 249 245 237 233 235 237 238 240 241 242 242
344 340 338 339 340 340 340 340 340 340 341 340 332 322 312 302 298 291 279 274 272 267 263 263 263 261 258 255 251 247 246 248 249 245 239 236 235 236 236 237 239 241
344 338 334 336 338 337 335 334 334 332 333 337 339 338 329 314 305 295 280 271 270 271 269 269 269 267 265 263 260 255 251 248 248 248 245 242 239 237 236 237 237 238
343 337 332 334 336 336 333 329 329 330 329 329 334 341 341 329 310 295 287 279 273 273 273 272 269 265 264 264 263 261 257 254 251 248 245 245 245 243 241 240 239 239
335 332 330 331 335 337 333 325 324 327 328 328 330 335 339 334 321 306 298 289 280 277 277 276 271 264 261 261 260 258 256 256 256 254 250 248 248 247 245 243 242 241
327 327 327 327 330 334 334 328 323 322 324 327 327 329 331 328 321 312 303 296 292 287 281 278 274 269 266 265 263 259 254 253 254 255 254 253 250 248 247 245 243 242
323 325 326 327 328 329 329 328 324 319 318 321 322 322 321 319 315 309 302 299 298 295 287 281 279 277 274 271 267 264 259 255 254 253 253 253 250 248 247 246 245 244
322 323 325 328 329 327 325 324 322 318 315 316 315 311 309 311 310 306 301 297 298 300 296 289 286 284 279 271 265 262 259 256 254 253 253 252 250 250 249 247 245 245
318 319 322 326 329 328 326 323 321 318 315 312 308 304 305 310 310 306 301 296 294 299 300 296 292 289 283 273 264 261 260 256 253 253 253 253 253 253 252 250 247 246
315 317 320 324 326 328 328 326 323 319 314 310 305 300 301 304 303 301 299 293 290 292 296 296 295 294 290 280 270 265 264 261 257 254 252 253 254 255 256 255 252 248
314 316 319 322 323 323 325 325 324 321 316 311 305 299 296 295 294 295 295 290 287 288 290 290 292 295 295 288 276 266 264 263 261 256 252 251 254 256 256 255 253 250
315 316 317 318 318 317 317 318 319 318 316 311 304 298 293 288 286 288 288 286 285 286 287 287 287 288 290 290 282 268 260 259 259 257 255 255 258 260 260 257 253 251